• In Belarus
  • List of Countries
  • For 7 days
  • Water Temperature
  • Weather Map
  • Weather Widgets
  • user-avatar
    Login

    Hourly Weather Vratsa

    Today, 18 August, Sunday

    Time Temperature Precipitation Wind Pressure Humidity
    00:00 +18°C° 0 mm 1 mps 709 mmHg 55%
    01:00 +18°C° 0 mm 1 mps 709 mmHg 57%
    02:00 +16°C° 0 mm 1 mps 709 mmHg 58%
    03:00 +16°C° 0 mm 1 mps 709 mmHg 60%
    04:00 +16°C° 0 mm 1 mps 709 mmHg 61%
    05:00 +16°C° 0 mm 1 mps 710 mmHg 63%
    06:00 +18°C° 0 mm 1 mps 710 mmHg 58%
    07:00 +20°C° 0 mm 1 mps 710 mmHg 53%
    08:00 +22°C° 0 mm 1 mps 711 mmHg 49%
    09:00 +23°C° 0 mm 1 mps 711 mmHg 44%
    10:00 +25°C° 0 mm 2 mps 711 mmHg 39%
    11:00 +27°C° 0 mm 2 mps 711 mmHg 34%
    12:00 +28°C° 0 mm 2 mps 711 mmHg 32%
    13:00 +29°C° 0 mm 2 mps 711 mmHg 29%
    14:00 +30°C° 0 mm 2 mps 711 mmHg 26%
    15:00 +30°C° 0 mm 2 mps 710 mmHg 26%
    16:00 +30°C° 0 mm 2 mps 710 mmHg 25%
    17:00 +29°C° 0 mm 2 mps 710 mmHg 25%
    18:00 +27°C° 0 mm 2 mps 710 mmHg 29%
    19:00 +24°C° 0 mm 1 mps 710 mmHg 33%
    20:00 +22°C° 0 mm 1 mps 710 mmHg 37%
    21:00 +21°C° 0 mm 1 mps 710 mmHg 38%
    22:00 +21°C° 0 mm 1 mps 710 mmHg 39%
    23:00 +20°C° 0 mm 1 mps 710 mmHg 40%

    Tomorrow, 19 August, Monday

    Time Temperature Precipitation Wind Pressure Humidity
    00:00 +20°C° 0 mm 1 mps 710 mmHg 41%
    01:00 +20°C° 0 mm 1 mps 710 mmHg 43%
    02:00 +19°C° 0 mm 1 mps 710 mmHg 44%
    03:00 +19°C° 0 mm 1 mps 710 mmHg 45%
    04:00 +19°C° 0 mm 1 mps 710 mmHg 45%
    05:00 +18°C° 0 mm 1 mps 710 mmHg 46%
    06:00 +20°C° 0 mm 1 mps 711 mmHg 43%
    07:00 +20°C° 0 mm 0 mps 711 mmHg 41%
    08:00 +22°C° 0 mm 0 mps 712 mmHg 38%
    09:00 +26°C° 0 mm 1 mps 712 mmHg 34%
    10:00 +27°C° 0 mm 1 mps 712 mmHg 31%
    11:00 +29°C° 0 mm 2 mps 712 mmHg 27%
    12:00 +30°C° 0 mm 2 mps 712 mmHg 26%
    13:00 +31°C° 0 mm 2 mps 712 mmHg 25%
    14:00 +33°C° 0 mm 3 mps 712 mmHg 24%
    15:00 +31°C° 0 mm 3 mps 711 mmHg 25%
    16:00 +31°C° 0 mm 3 mps 711 mmHg 26%
    17:00 +31°C° 0 mm 3 mps 711 mmHg 26%
    18:00 +29°C° 0 mm 2 mps 711 mmHg 31%
    19:00 +26°C° 0 mm 2 mps 711 mmHg 37%
    20:00 +23°C° 0 mm 1 mps 711 mmHg 42%
    21:00 +23°C° 0 mm 1 mps 711 mmHg 43%
    22:00 +22°C° 0 mm 1 mps 711 mmHg 44%
    23:00 +22°C° 0 mm 1 mps 712 mmHg 44%

    Day after tomorrow, 20 August, Tuesday

    Time Temperature Precipitation Wind Pressure Humidity
    00:00 +21°C° 0 mm 1 mps 712 mmHg 45%
    01:00 +21°C° 0 mm 1 mps 712 mmHg 46%
    02:00 +21°C° 0 mm 1 mps 712 mmHg 46%
    03:00 +20°C° 0 mm 1 mps 712 mmHg 48%
    04:00 +19°C° 0 mm 1 mps 712 mmHg 50%
    05:00 +19°C° 0 mm 1 mps 712 mmHg 52%
    06:00 +20°C° 0 mm 1 mps 712 mmHg 49%
    07:00 +22°C° 0 mm 1 mps 712 mmHg 45%
    08:00 +24°C° 0 mm 1 mps 713 mmHg 42%
    09:00 +26°C° 0 mm 1 mps 713 mmHg 37%
    10:00 +28°C° 0 mm 2 mps 713 mmHg 33%
    11:00 +29°C° 0 mm 2 mps 714 mmHg 29%
    12:00 +30°C° 0 mm 3 mps 713 mmHg 28%
    13:00 +31°C° 0 mm 3 mps 713 mmHg 27%
    14:00 +33°C° 0 mm 3 mps 713 mmHg 25%
    15:00 +33°C° 0 mm 3 mps 712 mmHg 25%
    16:00 +33°C° 0 mm 3 mps 712 mmHg 25%
    17:00 +31°C° 0 mm 3 mps 712 mmHg 25%
    18:00 +29°C° 0 mm 3 mps 712 mmHg 30%
    19:00 +26°C° 0 mm 2 mps 712 mmHg 35%
    20:00 +24°C° 0 mm 1 mps 711 mmHg 40%
    21:00 +23°C° 0 mm 1 mps 712 mmHg 42%
    22:00 +22°C° 0 mm 1 mps 712 mmHg 43%
    23:00 +21°C° 0 mm 1 mps 712 mmHg 44%

    21 August, Wednesday

    Time Temperature Precipitation Wind Pressure Humidity
    00:00 +21°C° 0 mm 1 mps 712 mmHg 45%
    01:00 +21°C° 0 mm 1 mps 712 mmHg 46%
    02:00 +20°C° 0 mm 1 mps 711 mmHg 47%
    03:00 +20°C° 0 mm 1 mps 711 mmHg 48%
    04:00 +19°C° 0 mm 1 mps 711 mmHg 49%
    05:00 +17°C° 0 mm 0 mps 711 mmHg 50%
    06:00 +20°C° 0 mm 1 mps 712 mmHg 46%
    07:00 +22°C° 0 mm 1 mps 712 mmHg 42%
    08:00 +24°C° 0 mm 1 mps 713 mmHg 38%
    09:00 +26°C° 0 mm 1 mps 713 mmHg 36%
    10:00 +27°C° 0 mm 2 mps 713 mmHg 34%
    11:00 +29°C° 0 mm 3 mps 713 mmHg 33%
    12:00 +30°C° 0 mm 3 mps 713 mmHg 32%
    13:00 +31°C° 0 mm 3 mps 712 mmHg 32%
    14:00 +33°C° 0 mm 4 mps 712 mmHg 31%
    15:00 +32°C° 0 mm 4 mps 712 mmHg 33%
    16:00 +32°C° 0 mm 4 mps 711 mmHg 35%
    17:00 +32°C° 0 mm 4 mps 711 mmHg 36%
    18:00 +29°C° 0 mm 3 mps 711 mmHg 43%
    19:00 +27°C° 0 mm 2 mps 711 mmHg 49%
    20:00 +25°C° 0 mm 1 mps 711 mmHg 56%
    21:00 +24°C° 0 mm 1 mps 711 mmHg 57%
    22:00 +24°C° 0 mm 1 mps 711 mmHg 58%
    23:00 +23°C° 0 mm 1 mps 711 mmHg 59%

    22 August, Thursday

    Time Temperature Precipitation Wind Pressure Humidity
    00:00 +23°C° 0 mm 1 mps 711 mmHg 60%
    01:00 +22°C° 0 mm 1 mps 711 mmHg 61%
    02:00 +22°C° 0 mm 1 mps 711 mmHg 61%
    03:00 +22°C° 0 mm 1 mps 711 mmHg 62%
    04:00 +21°C° 0 mm 1 mps 711 mmHg 63%
    05:00 +19°C° 0 mm 0 mps 711 mmHg 64%
    06:00 +22°C° 0 mm 1 mps 711 mmHg 60%
    07:00 +24°C° 0 mm 1 mps 711 mmHg 55%
    08:00 +25°C° 0 mm 1 mps 712 mmHg 51%
    09:00 +27°C° 0 mm 1 mps 712 mmHg 45%
    10:00 +29°C° 0 mm 1 mps 712 mmHg 40%
    11:00 +31°C° 0 mm 2 mps 712 mmHg 35%
    12:00 +32°C° 0 mm 2 mps 712 mmHg 32%
    13:00 +32°C° 0 mm 2 mps 712 mmHg 30%
    14:00 +34°C° 0 mm 2 mps 711 mmHg 27%
    15:00 +32°C° 0 mm 2 mps 711 mmHg 27%
    16:00 +32°C° 0 mm 2 mps 711 mmHg 27%
    17:00 +32°C° 0 mm 2 mps 711 mmHg 27%
    18:00 +30°C° 0 mm 2 mps 711 mmHg 30%
    19:00 +28°C° 0 mm 1 mps 711 mmHg 34%
    20:00 +26°C° 0 mm 1 mps 711 mmHg 37%
    21:00 +26°C° 0 mm 1 mps 711 mmHg 39%
    22:00 +25°C° 0 mm 1 mps 711 mmHg 42%
    23:00 +25°C° 0 mm 1 mps 712 mmHg 44%

    23 August, Friday

    Time Temperature Precipitation Wind Pressure Humidity
    00:00 +24°C° 0 mm 1 mps 712 mmHg 47%
    01:00 +23°C° 0 mm 1 mps 712 mmHg 51%
    02:00 +22°C° 0 mm 1 mps 711 mmHg 54%
    03:00 +22°C° 0 mm 1 mps 711 mmHg 57%
    04:00 +21°C° 0 mm 1 mps 711 mmHg 59%
    05:00 +20°C° 0 mm 1 mps 711 mmHg 61%
    06:00 +22°C° 0 mm 1 mps 711 mmHg 57%
    07:00 +24°C° 0 mm 1 mps 712 mmHg 53%
    08:00 +25°C° 0 mm 2 mps 712 mmHg 49%
    09:00 +27°C° 0 mm 2 mps 712 mmHg 45%
    10:00 +29°C° 0 mm 3 mps 712 mmHg 41%
    11:00 +30°C° 0 mm 3 mps 712 mmHg 37%
    12:00 +31°C° 0 mm 3 mps 712 mmHg 35%
    13:00 +33°C° 0 mm 3 mps 712 mmHg 32%
    14:00 +34°C° 0 mm 3 mps 712 mmHg 30%
    15:00 +33°C° 0 mm 3 mps 711 mmHg 31%
    16:00 +33°C° 0 mm 3 mps 711 mmHg 33%
    17:00 +31°C° 0 mm 3 mps 711 mmHg 34%
    18:00 +29°C° 0.2 mm 2 mps 711 mmHg 42%
    19:00 +26°C° 0.2 mm 2 mps 711 mmHg 51%
    20:00 +24°C° 0.2 mm 2 mps 711 mmHg 59%
    21:00 +23°C° 0.2 mm 1 mps 711 mmHg 63%
    22:00 +23°C° 0.2 mm 1 mps 711 mmHg 66%
    23:00 +22°C° 0.2 mm 1 mps 712 mmHg 69%
    Show more